Weather History for YBCG - July, 2013

Change the Weather History Date:

Sunday, July 7, 2013

  Actual Average (YBBN) Record (YBBN)
Temperature  
Mean Temperature 60 °F -  
Max Temperature 70 °F 67 °F 77 °F (1998)
Min Temperature 49 °F 47 °F 39 °F (2007)
Degree Days  
Heating Degree Days 6    
Growing Degree Days 10 (Base 50)    
Moisture  
Dew Point 50 °F    
Average Humidity 72    
Maximum Humidity 95    
Minimum Humidity 40    
Precipitation  
Precipitation 0.00 in - - ()
Sea Level Pressure  
Sea Level Pressure 30.27 in    
Wind  
Wind Speed 6 mph ()    
Max Wind Speed 16 mph    
Max Gust Speed -    
Visibility 6.2 miles    
Events      
Averages and records for this station are not official NWS values.
T = Trace of Precipitation, MM = Missing Value Source: Averaged Metar Reports

Daily Weather History Graph

Daily Weather History Graph

Search for Another Location

Airport or City:

Trip Planner

Search our weather history database for the weather conditions in past years. The results will help you decide how hot, cold, wet, or windy it might be!

Date:

Astronomy

Jul. 07, 2013 Rise Set
Actual Time 6:38 AM AEST 5:03 PM AEST
Civil Twilight 6:12 AM AEST 5:29 PM AEST
Nautical Twilight 5:43 AM AEST 5:58 PM AEST
Astronomical Twilight 5:14 AM AEST 6:27 PM AEST
Moon 5:25 AM AEST (7/7) 4:16 PM AEST (7/7)
Length of Visible Light 11h 16m
Length of Day
10h 25m
Waning Crescent, 1% of the Moon is Illuminated
Jul 7
Waning Crescent
Jul 8
New
Jul 16
First Quarter
Jul 23
Full
Jul 30
Last Quarter

Hourly Weather History & Observations

Time (AEST) Temp. Dew Point Humidity Pressure Visibility Wind Dir Wind Speed Gust Speed Precip Events Conditions
12:00 AM 53 °F 50 °F 85% 30.20 in - SW 1.2 mph - -  
12:00 AM 53.6 °F 50.0 °F 88% 30.18 in 6.2 mi SW 1.2 mph - N/A   Unknown
12:30 AM 53.6 °F 50.0 °F 88% 30.18 in 6.2 mi SSW 2.3 mph - N/A   Unknown
1:00 AM 53.6 °F 50.0 °F 88% 30.18 in 6.2 mi SSW 2.3 mph - N/A   Unknown
1:30 AM 51.8 °F 50.0 °F 94% 30.18 in 6.2 mi Calm Calm - N/A   Unknown
2:00 AM 51.8 °F 50.0 °F 94% 30.18 in 6.2 mi SSW 3.5 mph - N/A   Unknown
2:30 AM 51.8 °F 50.0 °F 94% 30.18 in 6.2 mi South 2.3 mph - N/A   Unknown
3:00 AM 50 °F 48 °F 92% 30.21 in - SW 3.5 mph - -  
3:00 AM 50.0 °F 48.2 °F 94% 30.18 in 6.2 mi SW 3.5 mph - N/A   Unknown
3:30 AM 51.8 °F 50.0 °F 94% 30.18 in 6.2 mi SW 3.5 mph - N/A   Unknown
4:00 AM 51.8 °F 50.0 °F 94% 30.21 in 6.2 mi SSW 3.5 mph - N/A   Unknown
4:30 AM 51.8 °F 50.0 °F 94% 30.21 in 6.2 mi SW 2.3 mph - N/A   Unknown
5:00 AM 51.8 °F 50.0 °F 94% 30.21 in 6.2 mi SW 2.3 mph - N/A   Unknown
5:30 AM 51.8 °F 50.0 °F 94% 30.21 in 6.2 mi SSW 2.3 mph - N/A   Unknown
6:00 AM 50 °F 49 °F 95% 30.24 in - South 3.5 mph - -  
6:00 AM 50.0 °F 48.2 °F 94% 30.21 in 6.2 mi South 3.5 mph - N/A   Unknown
6:30 AM 50.0 °F 48.2 °F 94% 30.24 in 6.2 mi South 6.9 mph - N/A   Unknown
7:00 AM 51.8 °F 50.0 °F 94% 30.24 in 6.2 mi South 4.6 mph - N/A   Unknown
7:30 AM 53.6 °F 50.0 °F 88% 30.27 in 6.2 mi SW 2.3 mph - N/A   Unknown
8:00 AM 59.0 °F 50.0 °F 72% 30.27 in 6.2 mi South 6.9 mph - N/A   Unknown
8:30 AM 60.8 °F 46.4 °F 59% 30.30 in 6.2 mi South 9.2 mph - N/A   Unknown
9:00 AM 63 °F 47 °F 46% 30.32 in - South 9.2 mph - -  
9:00 AM 62.6 °F 48.2 °F 59% 30.30 in 6.2 mi South 9.2 mph - N/A   Mostly Cloudy
9:30 AM 64.4 °F 48.2 °F 56% 30.30 in 6.2 mi South 8.1 mph - N/A   Mostly Cloudy
10:00 AM 62.6 °F 48.2 °F 59% 30.30 in 6.2 mi South 9.2 mph - N/A   Mostly Cloudy
10:30 AM 66.2 °F 51.8 °F 60% 30.30 in 6.2 mi South 9.2 mph - N/A   Scattered Clouds
11:00 AM 68.0 °F 51.8 °F 56% 30.30 in 6.2 mi South 9.2 mph - N/A   Scattered Clouds
11:30 AM 68.0 °F 51.8 °F 56% 30.30 in 6.2 mi South 11.5 mph - N/A   Scattered Clouds
12:00 PM 70 °F 51 °F 40% 30.30 in - SSE 12.7 mph - -  
12:00 PM 69.8 °F 50.0 °F 49% 30.27 in 6.2 mi SSE 12.7 mph - N/A   Unknown
12:30 PM 69.8 °F 50.0 °F 49% 30.27 in 6.2 mi SE 15.0 mph - N/A   Unknown
1:00 PM 68.0 °F 50.0 °F 52% 30.27 in 6.2 mi SE 13.8 mph - N/A   Unknown
1:30 PM 68.0 °F 50.0 °F 52% 30.27 in 6.2 mi SSE 13.8 mph - N/A   Unknown
2:00 PM 68.0 °F 51.8 °F 56% 30.27 in 6.2 mi SE 13.8 mph - N/A   Unknown
2:30 PM 68.0 °F 51.8 °F 56% 30.24 in 6.2 mi SE 15.0 mph - N/A   Unknown
3:00 PM 67 °F 50 °F 45% 30.27 in - SE 15.0 mph - -  
3:00 PM 68.0 °F 50.0 °F 52% 30.24 in 6.2 mi SE 15.0 mph - N/A   Unknown
3:30 PM 66.2 °F 50.0 °F 56% 30.27 in 6.2 mi SE 16.1 mph - N/A   Unknown
4:00 PM 64.4 °F 50.0 °F 59% 30.27 in 6.2 mi SSE 16.1 mph - N/A   Unknown
4:30 PM 64.4 °F 51.8 °F 64% 30.27 in 6.2 mi SSE 12.7 mph - N/A   Unknown
5:00 PM 62.6 °F 50.0 °F 63% 30.30 in 6.2 mi SSE 10.4 mph - N/A   Unknown
5:30 PM 60.8 °F 50.0 °F 68% 30.30 in 6.2 mi South 6.9 mph - N/A   Unknown
6:00 PM 59 °F 50 °F 65% 30.32 in - South 6.9 mph - -  
6:00 PM 59.0 °F 50.0 °F 72% 30.30 in 6.2 mi South 6.9 mph - N/A   Unknown
6:30 PM 59.0 °F 50.0 °F 72% 30.33 in 6.2 mi South 6.9 mph - N/A   Unknown
7:00 PM 59.0 °F 50.0 °F 72% 30.33 in 6.2 mi South 8.1 mph - N/A   Unknown
7:30 PM 59.0 °F 50.0 °F 72% 30.33 in 6.2 mi SSW 6.9 mph - N/A   Unknown
8:00 PM 57.2 °F 50.0 °F 77% 30.33 in 6.2 mi SSW 6.9 mph - N/A   Unknown
8:30 PM 57.2 °F 48.2 °F 72% 30.36 in 6.2 mi SSW 9.2 mph - N/A   Unknown
9:00 PM 58 °F 48 °F 61% 30.37 in - SSW 9.2 mph - -  
9:00 PM 57.2 °F 48.2 °F 72% 30.36 in 6.2 mi SSW 9.2 mph - N/A   Unknown
9:30 PM 57.2 °F 48.2 °F 72% 30.36 in 6.2 mi SSW 8.1 mph - N/A   Unknown
10:00 PM 57.2 °F 48.2 °F 72% 30.36 in 6.2 mi SSW 9.2 mph - N/A   Unknown
10:30 PM 57.2 °F 48.2 °F 72% 30.36 in 6.2 mi SSW 8.1 mph - N/A   Unknown
11:00 PM 57.2 °F 48.2 °F 72% 30.36 in 6.2 mi SSW 8.1 mph - N/A   Unknown
11:30 PM 57.2 °F 48.2 °F 72% 30.36 in 6.2 mi SSW 8.1 mph - N/A   Unknown